DW8306 Weather Reports


time (UTC)temp
F
wind
direction
speed
knots
gust
knots
rain 1hr
in
rain 24hr
in
rain mn
in
humidity
%
barometer
mb
20260904073039 76 94 0.0 0.0 0.00 0.00 0.00 92 1012.8
20260904071534 76 95 0.0 0.0 0.00 0.00 0.00 92 1012.8
20260904070044 76 94 0.0 0.0 0.00 0.00 0.00 92 1012.9
20260904064537 76 94 0.0 0.0 0.00 0.00 0.00 92 1012.7
20260904063028 77 95 0.0 0.0 0.00 0.00 0.00 91 1012.7
20260904061528 77 95 0.0 0.0 0.00 0.00 0.00 91 1012.8
20260904060025 77 94 0.0 0.0 0.00 0.00 0.00 91 1012.6
20260904054530 77 95 0.0 0.0 0.00 0.00 0.00 91 1012.4
20260904053022 77 95 0.0 0.0 0.00 0.00 0.00 91 1012.5
20260904051520 77 95 0.0 0.0 0.00 0.00 0.00 90 1012.4
20260904050020 78 95 0.0 0.0 0.00 0.00 0.00 90 1012.6
20260904044524 78 94 0.0 0.0 0.00 0.00 0.00 90 1012.4
20260904043017 78 95 0.0 0.0 0.00 0.00 0.00 89 1012.5
20260904041514 78 94 0.0 0.0 0.00 0.00 0.00 88 1012.3
20260904040015 78 94 0.0 0.0 0.00 0.00 0.00 88 1012.3
20260904034531 79 94 0.0 0.0 0.00 0.00 0.00 88 1012.1
20260904033013 79 94 0.0 0.0 0.00 0.00 0.00 89 1012.1
20260904031515 79 94 0.0 0.0 0.00 0.00 0.00 88 1012.3
20260904030012 80 94 0.0 0.0 0.00 0.00 0.00 88 1012.2
20260904024512 80 94 0.0 0.0 0.00 0.00 0.00 87 1012.2
20260904023011 80 94 0.0 0.0 0.00 0.00 0.00 86 1012.4
20260904021509 81 94 0.0 0.0 0.00 0.00 0.00 86 1012.3
20260904020009 81 95 0.0 0.0 0.00 0.00 0.00 85 1012.2
20260904014509 82 95 0.0 0.0 0.00 0.00 0.00 85 1012.1
20260904013009 82 95 0.0 0.0 0.00 0.00 0.00 84 1012.0
20260904011521 83 94 0.0 0.0 0.00 0.00 0.00 83 1011.8
20260904010007 84 95 0.0 0.0 0.00 0.00 0.00 81 1011.6
20260904004506 85 95 0.0 0.0 0.00 0.00 0.00 78 1011.4
20260904003005 86 95 0.0 0.0 0.00 0.00 0.00 75 1011.2
20260904001505 88 94 0.0 0.0 0.00 0.00 0.00 72 1011.3
20260904000005 89 94 0.0 0.9 0.00 0.00 0.00 70 1011.3
20260903234502 91 94 0.0 1.7 0.00 0.00 0.00 67 1011.5
20260903233004 91 40 0.0 0.9 0.00 0.00 0.00 66 1011.5
20260903231558 91 40 0.0 0.9 0.00 0.00 0.00 66 1011.7
20260903230057 91 100 0.0 1.7 0.00 0.00 0.00 65 1011.9
20260903224557 91 250 0.0 0.9 0.00 0.00 0.00 66 1011.7
20260903223056 90 108 0.0 0.0 0.00 0.00 0.00 68 1011.7
20260903221554 88 173 0.0 4.3 0.00 0.00 0.00 69 1011.8
20260903220104 89 33 0.0 4.3 0.00 0.00 0.00 69 1012.0
20260903214551 88 61 0.9 5.2 0.00 0.00 0.00 68 1012.2
20260903213057 88 297 1.7 5.2 0.00 0.00 0.00 69 1012.3
20260903211553 87 194 1.7 9.6 0.00 0.00 0.00 71 1012.4
20260903210053 90 133 0.0 6.1 0.00 0.00 0.00 68 1012.5
20260903204547 93 112 0.0 12.2 0.00 0.00 0.00 64 1012.4
20260903203109 93 4 0.0 1.7 0.00 0.00 0.00 64 1012.3
20260903201545 92 34 0.0 1.7 0.00 0.00 0.00 64 1012.4
20260903200044 92 228 0.0 0.9 0.00 0.00 0.00 64 1012.7
20260903194548 92 234 0.0 0.9 0.00 0.00 0.00 64 1012.7
20260903193043 93 83 0.0 3.5 0.00 0.00 0.00 63 1012.6
20260903191539 93 308 0.0 4.3 0.00 0.00 0.00 62 1013.0
20260903190036 94 231 0.9 5.2 0.00 0.00 0.00 59 1013.1
20260903184536 92 149 0.9 3.5 0.00 0.00 0.00 62 1013.3
20260903183039 93 172 0.0 3.5 0.00 0.00 0.00 63 1013.3
20260903181531 92 79 0.0 5.2 0.00 0.00 0.00 63 1013.6
20260903180030 92 93 0.0 5.2 0.00 0.00 0.00 67 1013.8
20260903174529 90 110 1.7 5.2 0.00 0.09 0.00 67 1014.1
20260903173028 91 177 0.9 5.2 0.00 0.09 0.00 66 1014.3
20260903171529 91 147 0.9 5.2 0.00 0.09 0.00 67 1014.6
20260903170026 89 66 0.0 4.3 0.00 0.09 0.00 71 1014.7
20260903164523 88 62 0.9 4.3 0.00 0.09 0.00 71 1014.9
20260903163022 88 87 0.0 0.9 0.00 0.09 0.00 73 1015.0
20260903161521 89 87 0.0 4.3 0.00 0.09 0.00 70 1015.0
20260903160029 89 108 0.0 1.7 0.00 0.09 0.00 71 1015.0
20260903154512 87 255 0.9 1.7 0.00 0.09 0.00 77 1015.0
20260903153011 87 138 0.0 1.7 0.00 0.09 0.00 78 1014.9
20260903151507 85 217 0.0 1.7 0.00 0.09 0.00 81 1014.8
20260903150006 85 66 0.0 1.7 0.00 0.09 0.00 82 1014.8
20260903144514 84 66 0.0 0.9 0.00 0.09 0.00 84 1014.9
20260903143100 83 66 0.0 3.5 0.00 0.09 0.00 86 1014.9
20260903141557 82 58 0.0 0.9 0.00 0.09 0.00 89 1015.0
20260903140051 80 58 0.0 0.0 0.00 0.09 0.00 92 1015.0
20260903134549 79 58 0.0 0.9 0.00 0.09 0.00 94 1015.1
20260903133056 78 58 0.0 0.9 0.00 0.09 0.00 94 1015.0
20260903131544 77 87 0.9 1.7 0.00 0.09 0.00 95 1015.0
20260903130045 77 51 0.0 0.0 0.00 0.09 0.00 95 1015.0
20260903124541 76 51 0.0 0.9 0.00 0.09 0.00 95 1015.0
20260903123040 76 51 0.0 0.0 0.00 0.09 0.00 95 1015.0
20260903121539 75 51 0.0 0.0 0.00 0.09 0.00 95 1014.7
20260903120052 75 51 0.0 0.0 0.00 0.09 0.00 94 1014.5
20260903114534 75 51 0.0 0.0 0.00 0.09 0.00 94 1014.3
20260903113101 75 51 0.0 0.0 0.00 0.09 0.00 94 1014.3
20260903111532 75 51 0.0 0.0 0.00 0.09 0.00 94 1014.2
20260903110032 75 51 0.0 0.0 0.00 0.09 0.00 94 1014.2
20260903104550 75 50 0.0 0.0 0.00 0.09 0.00 94 1014.1
20260903103034 75 51 0.0 0.0 0.00 0.09 0.00 94 1013.9
20260903101530 75 51 0.0 0.0 0.00 0.09 0.00 94 1014.0
20260903100035 75 51 0.0 0.0 0.00 0.09 0.00 94 1013.9
20260903094544 75 50 0.0 0.0 0.00 0.09 0.00 94 1013.7
20260903093032 75 51 0.0 0.9 0.00 0.09 0.00 93 1013.8
20260903091538 76 51 0.0 0.9 0.00 0.09 0.00 93 1013.8
20260903090024 76 354 0.0 1.7 0.00 0.09 0.00 93 1013.8
20260903084522 76 354 0.0 0.0 0.00 0.09 0.00 92 1013.8
20260903083021 76 354 0.0 0.0 0.00 0.09 0.00 93 1013.7
20260903081518 76 354 0.0 0.0 0.00 0.09 0.00 92 1013.8
20260903080018 76 354 0.0 0.0 0.00 0.09 0.00 92 1013.7
20260903074516 76 354 0.0 0.0 0.00 0.09 0.00 92 1013.7